Location: Champigny
(49.2678°N, 3.9710°E)
Time: 19:06:27
(UTC+00:00)

Daily predictions for brighter satellites

Satellite Brightness Start Highest point End
(mag) Time Altitude Azimuth Time Altitude Azimuth Time Altitude Azimuth
NOSS 3-3 (A) 3.9 17:21:22 10° SSW 17:26:23 56° ESE 17:32:21 10° NE
Cosmos 1802 Rocket 4.3 17:27:49 10° NNW 17:34:14 79° W 17:40:39 10° S
Cosmos 2285 Rocket 4.1 17:30:14 10° NNW 17:36:36 58° ENE 17:42:53 10° SE
Cosmos 2233 Rocket 4.0 17:30:51 10° N 17:37:09 73° E 17:43:27 10° SSE
CZ-4 R/B 4.3 17:33:27 10° SSE 17:37:23 66° ENE 17:41:21 10° N
USA 290 2.7 17:34:26 10° SSW 17:37:36 62° WNW 17:40:47 10° NNE
NOSS 0 Rocket 4.0 17:32:54 10° NNW 17:39:12 84° ENE 17:45:26 10° SSE
USA 306 3.8 17:38:00 10° WNW 17:40:38 27° SW 17:42:31 10° SSE
ARIANE 6 FM1 Upper Stage 4.2 17:39:13 10° NNW 17:42:07 19° NNE 17:45:00 10° ENE
NOSS 3-4 (A) 3.9 17:38:32 10° NW 17:44:57 56° NE 17:52:30 10° ESE
NOSS 3-4 (C) 3.9 17:38:48 10° NW 17:45:14 56° NE 17:52:47 10° ESE
Cosmos 1725 Rocket 4.4 17:39:40 10° NNW 17:45:54 71° W 17:52:07 10° S
Cosmos 2151 Rocket 3.8 17:45:08 10° NNW 17:49:39 81° W 17:54:08 10° S
Meteor 1-11 4.3 17:46:21 10° S 17:51:59 90° W 17:57:46 10° NNE
Radarsat Rocket 4.0 17:49:18 10° SE 17:55:06 64° ENE 18:01:25 10° NNW
Cosmos 1607 4.1 17:49:20 10° SW 17:55:29 78° NW 18:01:44 10° NE
Cosmos 1455 Rocket 3.4 17:53:11 10° N 17:57:17 41° ENE 18:01:21 10° SE
Cosmos 44 Rocket 4.2 17:54:53 10° S 17:59:08 30° ESE 18:03:11 12° ENE
YAOGAN 1 2.4 17:55:14 10° SSE 17:59:28 77° ENE 18:03:45 10° N
Cosmos 1975 Rocket 4.1 17:56:25 10° SE 17:59:47 22° E 18:03:09 10° NE
Cosmos 2228 3.9 17:56:34 10° NNE 18:00:07 26° ENE 18:03:40 10° SE
PSLV R/B 3.6 17:56:19 10° SE 18:00:18 49° ENE 18:04:16 10° N
COSMO-SKYMED 1 2.7 17:56:40 10° NNE 18:00:40 46° E 18:04:38 10° S
ATLAS 2AS CENTAUR R/B 4.1 17:55:11 10° WNW 18:01:03 29° NNW 18:06:51 10° NE
Cosmos 2297 Rocket 2.3 17:56:23 10° S 18:01:52 54° ESE 18:07:23 10° NE
Cosmos 1782 4.0 17:59:21 10° NNE 18:01:55 18° ENE 18:03:12 15° E
Lacrosse 5 rocket 2.3 18:00:15 10° W 18:03:26 31° NNW 18:06:24 12° NE
DNEPR-1 R/B 4.3 18:00:18 10° NNW 18:04:52 45° NE 18:10:09 10° ESE
SPOT 1/Viking Rocket 4.2 18:01:27 10° S 18:06:29 60° WSW 18:11:35 10° NNW
Cosmos 2061 Rocket 4.2 18:01:11 10° N 18:07:36 80° W 18:13:52 10° S
Aureole 3 Rocket 2.4 18:03:47 10° N 18:07:46 70° ENE 18:10:57 10° SSE
CZ-2D R/B 3.2 18:05:24 10° SSE 18:09:18 83° ENE 18:13:20 10° NNW
Okean 1 Rocket 3.3 18:08:15 10° NNW 18:12:39 72° W 18:16:59 10° S
SL-16 R/B 4.4 18:07:31 10° N 18:12:45 30° WNW 18:17:59 10° WSW
CZ-4C R/B 2.2 18:08:52 10° SW 18:13:11 63° NW 18:18:46 10° NE
Cosmos 1464 Rocket 4.2 18:10:58 10° N 18:17:06 47° ENE 18:23:07 10° SSE
Okean 2 Rocket 3.9 18:13:35 10° NNW 18:17:53 54° W 18:22:08 10° S
Cosmos 2344 4.3 18:12:48 10° S 18:19:23 29° ESE 18:23:43 17° ENE
Cosmos 2221 Rocket 3.7 18:15:28 10° SSW 18:19:56 80° W 18:24:29 10° N
Cosmos 1602 4.3 18:17:57 10° SSE 18:19:21 21° SE 18:19:21 21° SE
USA 267 3.5 18:15:08 12° NE 18:21:16 67° NNW 18:27:44 10° WSW
SJ-6B 2.8 18:20:56 10° SE 18:24:11 40° ENE 18:27:27 10° N
Cosmos 1980 4.0 18:24:45 10° NNW 18:30:23 69° WSW 18:35:59 10° SSE
Cosmos 2263 Rocket 3.1 18:25:55 10° SSE 18:30:26 25° ESE 18:31:44 23° E
Cosmos 1025 Rocket 4.0 18:26:24 10° SSW 18:30:34 48° WNW 18:34:49 10° N
Meteor 1-31 Rocket 3.8 18:36:36 24° NE 18:36:36 24° NE 18:38:38 10° N
Cosmos 2237 Rocket 2.6 18:30:01 10° NNW 18:35:40 68° WSW 18:41:18 10° SSE
Meteor 1-27 4.3 18:32:20 10° NNW 18:38:09 88° W 18:43:59 10° S
SeaSat 1 4.4 18:37:44 10° S 18:42:02 30° WSW 18:46:21 10° NW
Cosmos 1570 Rocket 4.0 18:37:53 10° SSW 18:43:10 89° ESE 18:48:28 10° NNE
Resurs 01 Rocket 1.6 18:39:07 10° SSE 18:43:30 82° WSW 18:47:57 10° NNW
SPOT 5 3.3 18:45:52 28° ESE 18:47:52 42° ENE 18:52:41 10° N
NOSS 3-3 (C) 4.3 18:44:50 10° WSW 18:50:07 57° NW 18:55:59 12° NE
DMSP B5D1-3 4.4 18:47:55 10° NNE 18:53:04 87° ESE 18:58:11 10° SSW
Tiangong 0.0 18:53:43 10° SW 18:55:41 18° S 18:55:41 18° S
Cosmos 2227 Rocket 2.1 18:55:33 10° SSW 19:01:08 68° ESE 19:05:16 19° NE
SL-16 R/B 2.2 18:56:00 10° NNW 19:01:38 63° ENE 19:03:58 35° SE
Cosmos 773 Rocket 4.1 18:58:48 10° SSW 19:04:05 80° WNW 19:09:24 10° NNE
Cosmos 1346 Rocket 3.4 19:00:33 10° S 19:02:49 36° S 19:02:49 36° S
Cosmos 2208 Rocket 4.0 18:59:02 10° SSW 19:04:17 85° WNW 19:09:39 10° NNE
Tsikada Rocket 4.2 19:02:14 10° SSE 19:07:57 43° E 19:13:43 10° NNE
CZ-4 R/B 2.8 19:17:56 24° N 19:17:56 24° N 19:19:35 10° N
Okean O Rocket 4.1 19:20:31 10° NNE 19:20:31 10° NNE 19:20:37 10° NNE
ARIANE 6 FM1 Upper Stage 2.9 19:17:50 10° NW 19:21:06 54° NNW 19:21:06 54° NNW
Gbstr 26 Del rocket 4.5 19:18:34 10° SW 19:25:12 50° SE 19:26:28 46° ESE
CZ-4B R/B 3.5 19:26:08 46° NE 19:26:08 46° NE 19:30:30 10° N
Terra 3.3 19:30:49 24° NNE 19:30:49 24° NNE 19:32:55 10° N
Cosmos 1544 Rocket 3.5 19:25:36 10° NNW 19:29:57 79° W 19:30:03 78° WSW
CZ-4B DEB 4.0 19:29:06 59° SE 19:30:07 75° ENE 19:35:35 10° NNW
CSL-04 Debris 4.1 19:30:41 38° SSE 19:32:55 87° WSW 19:38:23 10° NNW
Cosmos 2034 Rocket 4.0 19:28:47 10° NNW 19:34:58 77° W 19:41:09 10° S
Cosmos 1782 4.0 19:33:28 10° NNW 19:36:47 35° W 19:37:19 33° WSW
Cosmos 1975 Rocket 4.3 19:33:10 10° SW 19:37:15 40° WNW 19:41:21 10° N
CSL-04 Rocket 3.7 19:35:11 33° S 19:37:34 75° WSW 19:42:53 10° NNW
TSX-5 4.2 19:32:33 10° NNW 19:37:23 75° NNW 19:37:23 75° NNW
RESURS DK-1 4.5 19:34:27 10° NNW 19:35:40 18° N 19:35:40 18° N
Cosmos 44 Rocket 4.0 19:35:28 10° WSW 19:40:19 52° NW 19:41:49 39° N
Lacrosse 5 rocket 3.2 19:38:04 10° NW 19:39:50 20° NNW 19:39:50 20° NNW
MOS 1 4.2 19:41:21 68° NE 19:41:21 68° NE 19:46:47 10° N
Cosmos 1634 Rocket 3.9 19:36:04 10° N 19:42:24 73° ENE 19:43:02 68° ESE
Cosmos 2297 Rocket 3.8 19:41:08 10° WSW 19:46:11 32° NW 19:51:15 10° NNE
Cosmos 1943 3.6 19:43:55 10° NNW 19:48:32 50° NNE 19:48:32 50° NNE
ATLAS 2AS CENTAUR R/B 4.0 19:48:36 10° NW 19:54:07 25° N 19:55:21 24° NNE
BREEZE-M DEB (TANK) 3.7 19:38:55 10° W 19:55:49 71° S 19:56:30 66° SE
ERS-1 Rocket 4.0 20:02:08 38° NNW 20:02:08 38° NNW 20:05:12 10° NNW
CZ-4C R/B 3.9 19:58:30 10° WNW 20:02:36 24° NNW 20:04:22 21° NNE
BREEZE-M DEB (TANK) 4.2 19:58:05 10° SW 20:02:57 67° SSE 20:04:47 56° E
USA 267 3.9 20:02:29 41° NNE 20:03:47 46° N 20:09:58 10° WNW
Cosmos 2279 Rocket 4.3 19:58:37 10° N 20:03:20 53° N 20:03:20 53° N
Cosmos 2263 Rocket 2.6 20:08:18 10° SW 20:13:31 60° W 20:13:31 60° W
Cosmos 2344 3.6 20:25:31 10° SW 20:33:06 69° NW 20:33:47 65° N
SL-16 R/B 4.0 20:40:49 10° NW 20:45:16 24° WSW 20:45:53 24° WSW
Cosmos 2227 Rocket 4.0 20:40:53 10° WSW 20:45:40 27° NW 20:47:09 24° NNW
